CDT,Max TemperatureF,Mean TemperatureF,Min TemperatureF,Max Dew PointF,MeanDew PointF,Min DewpointF,Max Humidity, Mean Humidity, Min Humidity, Max Sea Level PressureIn, Mean Sea Level PressureIn, Min Sea Level PressureIn, Max VisibilityMiles, Mean VisibilityMiles, Min VisibilityMiles, Max Wind SpeedMPH, Mean Wind SpeedMPH, Max Gust SpeedMPH,PrecipitationIn, CloudCover, Events, WindDirDegrees
2012-4-1,69,58,46,50,47,45,100,77,46,29.69,29.57,29.44,10,5,0,26,14,34,0.00,4,Fog,119
2012-4-2,62,56,51,50,46,39,82,68,55,29.87,29.65,29.50,10,10,7,25,17,34,0.00,7,,93
2012-4-3,62,52,42,45,31,14,87,54,15,30.15,30.07,29.92,10,10,10,23,17,30,0.01,3,Rain-Thunderstorm,9
2012-4-4,62,48,33,28,23,16,75,42,16,30.09,30.04,29.94,10,10,10,15,7,17,0.00,0,,67
2012-4-5,64,50,37,30,26,23,65,41,22,30.07,30.03,29.96,10,10,7,16,8,22,0.00,0,,102
2012-4-6,64,48,33,30,23,10,75,41,13,30.16,30.09,29.93,10,10,7,23,12,31,0.00,0,,128
2012-4-7,57,52,48,39,29,16,66,43,20,30.10,30.04,29.91,10,10,7,31,19,41,0.00,4,,265
2012-4-8,60,48,35,28,18,9,70,31,13,30.22,30.15,30.10,10,10,10,28,13,38,0.00,1,,277
2012-4-9,46,38,26,25,19,14,70,44,27,30.21,30.18,30.12,10,10,10,26,14,37,0.00,0,,313
2012-4-10,42,32,23,21,16,12,80,53,29,30.34,30.27,30.19,10,10,10,23,11,29,0.00,0,,325
2012-4-11,50,32,15,21,14,10,86,47,20,30.42,30.31,30.16,10,10,10,8,4,,0.00,0,,88
2012-4-12,60,44,28,37,21,16,66,41,19,30.17,30.03,29.90,10,10,10,17,9,25,0.00,3,Rain,143
2012-4-13,53,50,46,50,44,34,100,82,50,29.90,29.69,29.53,10,8,1,28,15,36,0.34,7,Rain-Thunderstorm,153
2012-4-14,71,56,41,52,43,36,93,65,27,29.78,29.69,29.55,10,10,7,10,6,,0.00,1,,173
2012-4-15,55,47,39,54,48,37,100,93,87,29.56,29.40,29.28,10,8,2,33,16,41,0.75,8,Rain-Thunderstorm,55
2012-4-16,42,37,32,37,30,27,100,78,53,30.19,29.96,29.48,10,9,3,41,25,51,0.13,7,Snow,323
2012-4-17,60,46,33,46,38,30,100,70,47,30.23,30.10,29.82,10,10,10,17,6,28,0.00,3,Thunderstorm,146
2012-4-18,53,48,42,50,42,37,94,79,54,30.02,29.94,29.80,10,10,5,21,11,29,0.17,5,Rain-Thunderstorm,313
2012-4-19,51,42,33,39,33,21,87,67,30,30.03,29.99,29.96,10,10,10,17,6,25,0.01,3,Rain,78
2012-4-20,57,44,30,37,30,25,100,58,31,30.11,30.04,29.95,10,10,4,10,2,16,0.00,3,,221
2012-4-21,60,50,39,48,41,37,93,77,48,30.01,29.88,29.77,10,10,5,31,13,37,0.30,7,Rain-Thunderstorm,220
2012-4-22,55,46,37,39,37,32,100,78,44,30.27,30.19,30.02,10,10,7,26,16,34,0.00,5,,342
2012-4-23,71,52,33,37,32,25,100,52,18,30.21,30.03,29.78,10,10,10,12,4,16,0.00,0,,211
2012-4-24,78,61,44,46,41,36,81,50,23,29.78,29.63,29.50,10,10,10,13,7,18,0.00,0,Rain,106
2012-4-25,75,65,55,55,48,39,88,57,29,29.86,29.59,29.46,10,10,7,21,11,26,0.08,1,Rain-Thunderstorm,353
2012-4-26,59,50,41,43,27,12,87,46,17,30.14,30.08,29.88,10,10,10,17,12,22,0.00,0,,47
2012-4-27,55,48,42,36,25,18,76,41,26,30.11,30.01,29.88,10,10,10,31,16,39,0.02,6,Rain,118
2012-4-28,51,45,39,41,37,23,93,81,33,30.15,30.03,29.93,10,9,2,24,15,33,0.05,8,Rain,124
2012-4-29,55,48,42,45,43,41,100,86,67,30.15,30.10,29.99,10,7,4,15,11,22,0.00,7,,145
2012-4-30,69,56,42,46,41,34,100,61,27,30.00,29.86,29.72,10,8,3,21,6,28,0.00,4,,219